Location: Brno
(49.2000°N, 16.6330°E)
Time: 23:25:12
(UTC+02:00)

Vanguard 3 - Pass Details

Date: 02 August 2021
Orbit: 510 x 3260 km, 33.3° (Epoch: 22 September)

Event Time Altitude Azimuth Distance (km) Brightness Sun altitude
Rises 21:00:19 0° 257° (WSW) 6,152 12.3 -4.9°
Reaches altitude 10° 21:04:10 10° 252° (WSW) 5,434 11.9 -5.4°
Maximum altitude 21:20:23 47° 186° (S) 3,907 10.4 -7.5°
Drops below altitude 10° 21:38:12 10° 122° (ESE) 5,925 10.9 -9.7°
Enters shadow 21:38:19 10° 121° (ESE) 5,945 10.9 -9.8°
